User: anonymous   Login
Location: Unspecified
(0.0000°N, 0.0000°E)
Time: 17:13:32
(UTC+02:00)
Language:

Cosmos 1898 Rocket - Orbit

View from above orbital plane
View from above orbital plane
View from above satellite
View from above satellite

Ground track
Ground track

The orbit data is extracted from the following two-line orbital elements,

1 18586U 87098B   17112.95524431 +.00000074 +00000-0 +33863-4 0  9993
2 18586 074.0087 037.0385 0019997 108.0759 323.3966 14.36777845539121
Epoch (UTC): 22 April 2017 22:55:33
Eccentricity: 0.0019997
inclination: 74.0087°
perigee height: 755 km
apogee height: 783 km
right ascension of ascending node: 37.0385°
argument of perigee: 108.0759°
revolutions per day: 14.36777845
mean anomaly at epoch: 323.3966°
orbit number at epoch: 53912

The dashed part of the orbit path shows where the satellite is in the earth's shadow,  

DLR